When you browse on this site, cookies collect data to enhance your experience and personalize the content and advertising you see.
Visit our Privacy Policy to learn more. By continuing to use the site, you agree to this use of cookies and data.

Hourly Weather Parral

Today, 18 September, Friday

Time Temperature Precipitation Wind Pressure Humidity
00:00 +8°C° 0 mm 4 mps 749 mmHg 91%
01:00 +7°C° 0 mm 4 mps 749 mmHg 91%
02:00 +7°C° 0 mm 4 mps 748 mmHg 90%
03:00 +6°C° 0 mm 4 mps 748 mmHg 89%
04:00 +6°C° 0 mm 4 mps 748 mmHg 88%
05:00 +6°C° 0 mm 4 mps 748 mmHg 85%
06:00 +6°C° 0 mm 4 mps 748 mmHg 83%
07:00 +7°C° 0 mm 4 mps 749 mmHg 80%
08:00 +9°C° 0 mm 5 mps 749 mmHg 74%
09:00 +12°C° 0 mm 5 mps 749 mmHg 68%
10:00 +14°C° 0 mm 6 mps 749 mmHg 62%
11:00 +15°C° 0 mm 6 mps 748 mmHg 59%
12:00 +16°C° 0 mm 6 mps 748 mmHg 57%
13:00 +16°C° 0 mm 7 mps 748 mmHg 54%
14:00 +16°C° 0 mm 7 mps 748 mmHg 56%
15:00 +15°C° 0 mm 7 mps 748 mmHg 59%
16:00 +15°C° 0 mm 7 mps 748 mmHg 62%
17:00 +13°C° 0 mm 6 mps 748 mmHg 64%
18:00 +10°C° 0 mm 6 mps 749 mmHg 66%
19:00 +8°C° 0 mm 6 mps 749 mmHg 68%
20:00 +8°C° 0 mm 6 mps 749 mmHg 71%
21:00 +7°C° 0 mm 6 mps 749 mmHg 74%
22:00 +5°C° 0 mm 6 mps 750 mmHg 78%
23:00 +6°C° 0 mm 5 mps 749 mmHg 79%

Tomorrow, 19 September, Saturday

Time Temperature Precipitation Wind Pressure Humidity
00:00 +5°C° 0 mm 4 mps 749 mmHg 81%
01:00 +5°C° 0 mm 4 mps 748 mmHg 82%
02:00 +4°C° 0 mm 4 mps 748 mmHg 80%
03:00 +4°C° 0 mm 4 mps 748 mmHg 77%
04:00 +4°C° 0 mm 3 mps 748 mmHg 74%
05:00 +4°C° 0 mm 3 mps 748 mmHg 72%
06:00 +5°C° 0 mm 3 mps 748 mmHg 69%
07:00 +5°C° 0 mm 3 mps 748 mmHg 67%
08:00 +8°C° 0 mm 4 mps 748 mmHg 63%
09:00 +12°C° 0 mm 4 mps 748 mmHg 60%
10:00 +14°C° 0 mm 4 mps 748 mmHg 57%
11:00 +17°C° 0 mm 4 mps 747 mmHg 56%
12:00 +19°C° 0 mm 5 mps 747 mmHg 56%
13:00 +21°C° 0 mm 5 mps 746 mmHg 55%
14:00 +21°C° 0 mm 5 mps 746 mmHg 57%
15:00 +21°C° 0 mm 4 mps 745 mmHg 59%
16:00 +20°C° 0 mm 4 mps 745 mmHg 61%
17:00 +18°C° 0 mm 3 mps 745 mmHg 64%
18:00 +14°C° 0 mm 3 mps 745 mmHg 68%
19:00 +13°C° 0 mm 2 mps 745 mmHg 71%
20:00 +12°C° 0 mm 2 mps 745 mmHg 72%
21:00 +10°C° 0 mm 2 mps 745 mmHg 73%
22:00 +10°C° 0 mm 1 mps 745 mmHg 74%
23:00 +9°C° 0 mm 1 mps 745 mmHg 76%

Day after tomorrow, 20 September, Sunday

Time Temperature Precipitation Wind Pressure Humidity
00:00 +9°C° 0 mm 1 mps 745 mmHg 77%
01:00 +8°C° 0 mm 1 mps 745 mmHg 79%
02:00 +8°C° 0 mm 1 mps 745 mmHg 79%
03:00 +7°C° 0 mm 1 mps 745 mmHg 79%
04:00 +7°C° 0 mm 1 mps 744 mmHg 80%
05:00 +7°C° 0 mm 1 mps 745 mmHg 77%
06:00 +8°C° 0 mm 1 mps 745 mmHg 75%
07:00 +9°C° 0 mm 1 mps 745 mmHg 73%
08:00 +11°C° 0 mm 1 mps 745 mmHg 67%
09:00 +13°C° 0 mm 1 mps 745 mmHg 61%
10:00 +16°C° 0 mm 1 mps 745 mmHg 56%
11:00 +18°C° 0 mm 1 mps 745 mmHg 54%
12:00 +20°C° 0 mm 1 mps 745 mmHg 53%
13:00 +21°C° 0 mm 1 mps 745 mmHg 51%
14:00 +21°C° 0 mm 1 mps 745 mmHg 54%
15:00 +21°C° 0 mm 1 mps 745 mmHg 56%
16:00 +21°C° 0 mm 1 mps 745 mmHg 58%
17:00 +19°C° 0 mm 1 mps 745 mmHg 65%
18:00 +16°C° 0 mm 1 mps 746 mmHg 71%
19:00 +14°C° 0 mm 1 mps 746 mmHg 78%
20:00 +13°C° 0 mm 1 mps 746 mmHg 80%
21:00 +12°C° 0 mm 1 mps 746 mmHg 81%
22:00 +11°C° 0 mm 0 mps 746 mmHg 83%
23:00 +10°C° 0 mm 0 mps 746 mmHg 83%

21 September, Monday

Time Temperature Precipitation Wind Pressure Humidity
00:00 +11°C° 0 mm 1 mps 746 mmHg 84%
01:00 +11°C° 0 mm 1 mps 746 mmHg 84%
02:00 +11°C° 0 mm 1 mps 746 mmHg 84%
03:00 +10°C° 0 mm 1 mps 746 mmHg 84%
04:00 +10°C° 0 mm 1 mps 745 mmHg 84%
05:00 +11°C° 0 mm 1 mps 746 mmHg 83%
06:00 +11°C° 0 mm 1 mps 746 mmHg 82%
07:00 +12°C° 0 mm 1 mps 746 mmHg 80%
08:00 +14°C° 0 mm 1 mps 746 mmHg 76%
09:00 +16°C° 0 mm 1 mps 745 mmHg 71%
10:00 +19°C° 0 mm 1 mps 745 mmHg 66%
11:00 +20°C° 0 mm 1 mps 745 mmHg 64%
12:00 +20°C° 0 mm 2 mps 745 mmHg 62%
13:00 +21°C° 0 mm 2 mps 745 mmHg 61%
14:00 +21°C° 0 mm 2 mps 744 mmHg 63%
15:00 +21°C° 0 mm 2 mps 744 mmHg 65%
16:00 +21°C° 0 mm 2 mps 744 mmHg 68%
17:00 +18°C° 0 mm 2 mps 745 mmHg 72%
18:00 +16°C° 0 mm 2 mps 745 mmHg 76%
19:00 +13°C° 0 mm 2 mps 745 mmHg 80%
20:00 +12°C° 0 mm 2 mps 746 mmHg 80%
21:00 +10°C° 0 mm 2 mps 746 mmHg 80%
22:00 +9°C° 0 mm 2 mps 746 mmHg 80%
23:00 +9°C° 0 mm 2 mps 746 mmHg 83%

22 September, Tuesday

Time Temperature Precipitation Wind Pressure Humidity
00:00 +8°C° 0 mm 2 mps 746 mmHg 85%
01:00 +7°C° 0 mm 2 mps 746 mmHg 88%
02:00 +7°C° 0 mm 2 mps 746 mmHg 86%
03:00 +6°C° 0 mm 2 mps 746 mmHg 84%
04:00 +6°C° 0 mm 2 mps 746 mmHg 82%
05:00 +5°C° 0 mm 3 mps 746 mmHg 83%
06:00 +7°C° 0 mm 3 mps 747 mmHg 84%
07:00 +7°C° 0 mm 3 mps 747 mmHg 85%
08:00 +10°C° 0 mm 3 mps 747 mmHg 79%
09:00 +12°C° 0 mm 4 mps 747 mmHg 73%
10:00 +15°C° 0 mm 4 mps 747 mmHg 68%
11:00 +17°C° 0 mm 4 mps 747 mmHg 65%
12:00 +18°C° 0 mm 4 mps 747 mmHg 63%
13:00 +19°C° 0 mm 5 mps 747 mmHg 60%
14:00 +17°C° 0 mm 5 mps 747 mmHg 61%
15:00 +18°C° 0 mm 4 mps 747 mmHg 61%
16:00 +18°C° 0 mm 4 mps 747 mmHg 62%
17:00 +14°C° 0 mm 4 mps 747 mmHg 65%
18:00 +12°C° 0 mm 3 mps 747 mmHg 69%
19:00 +10°C° 0 mm 3 mps 748 mmHg 72%
20:00 +9°C° 0 mm 3 mps 748 mmHg 75%
21:00 +8°C° 0 mm 3 mps 748 mmHg 78%
22:00 +7°C° 0 mm 3 mps 749 mmHg 81%
23:00 +7°C° 0 mm 3 mps 748 mmHg 85%

23 September, Wednesday

Time Temperature Precipitation Wind Pressure Humidity
00:00 +5°C° 0 mm 3 mps 748 mmHg 88%
01:00 +4°C° 0 mm 3 mps 748 mmHg 92%
02:00 +4°C° 0 mm 3 mps 748 mmHg 92%
03:00 +4°C° 0 mm 2 mps 748 mmHg 93%
04:00 +4°C° 0 mm 2 mps 748 mmHg 93%
05:00 +4°C° 0 mm 2 mps 748 mmHg 90%
06:00 +5°C° 0 mm 2 mps 748 mmHg 87%
07:00 +6°C° 0 mm 2 mps 749 mmHg 84%
08:00 +8°C° 0 mm 3 mps 749 mmHg 77%
09:00 +11°C° 0 mm 3 mps 748 mmHg 70%
10:00 +13°C° 0 mm 3 mps 748 mmHg 63%
11:00 +15°C° 0 mm 4 mps 748 mmHg 61%
12:00 +17°C° 0 mm 4 mps 748 mmHg 59%
13:00 +19°C° 0 mm 4 mps 747 mmHg 57%
14:00 +19°C° 0 mm 4 mps 747 mmHg 58%
15:00 +19°C° 0 mm 4 mps 747 mmHg 59%
16:00 +19°C° 0 mm 4 mps 747 mmHg 60%
17:00 +16°C° 0 mm 3 mps 747 mmHg 65%
18:00 +13°C° 0 mm 3 mps 747 mmHg 70%
19:00 +10°C° 0 mm 3 mps 747 mmHg 75%
20:00 +9°C° 0 mm 3 mps 747 mmHg 78%
21:00 +8°C° 0 mm 3 mps 747 mmHg 81%
22:00 +7°C° 0 mm 3 mps 747 mmHg 84%
23:00 +7°C° 0 mm 3 mps 747 mmHg 86%
Show more